Terminal Aerodrome Forecast
Issued by NWS King Salmon, AK

Home | Current Version | Previous Version | Text Only | Print | Product List | Glossary On
Versions: 1 2 3 4 5 6 7 8 9 10 11 12 13 14 15 16 17 18 19 20 21 22 23 24 25 26 27 28 29 30 31 32
000
FTAK31 PANC 030539
TAFAKN
TAF
PAKN 030539Z 0306/0406 21007KT P6SM FEW008 BKN020 BKN035
      TEMPO 0306/0310 4SM BR BKN008
     FM032200 04006KT P6SM SCT025 BKN060=

USA.gov is the U.S. government's official web portal to all federal, state and local government web resources and services.